Location: ?ern� Novina
(50.6762°N, 14.8696°E)
Time: 03:04:29
(UTC+00:00)

Cosmos 864 Rocket - Pass Details

Date: 03 March 2021
Orbit: 954 x 990 km, 82.9° (Epoch: 13 April)

Event Time Altitude Azimuth Distance (km) Brightness Sun altitude
Rises 19:05:41 0° 188° (S) 3,625 7.4 -22.7°
Reaches altitude 10° 19:08:10 10° 189° (S) 2,687 6.7 -23.1°
Maximum altitude 19:14:20 87° 280° (W) 975 4.4 -24.0°
Drops below altitude 10° 19:20:36 10° 9° (N) 2,729 7.0 -25.0°
Sets 19:23:08 0° 10° (N) 3,686 7.7 -25.3°
